Location: Barcelona
(41.3830°N, 2.1830°E)
Time: 13:57:25
(UTC+01:00)

ISS - Pass Details

Date: 15 December 2017
Orbit: 402 x 406 km, 51.6° (Epoch: 16 December)

Event Time Altitude Azimuth Distance (km) Brightness Sun altitude
Rises 17:53:20 0° 308° (NW) 2,331 0.4 -5.9°
Reaches altitude 10° 17:55:29 10° 315° (NW) 1,467 -0.7 -6.3°
Maximum altitude 17:58:40 47° 30° (NNE) 551 -3.5 -6.8°
Drops below altitude 10° 18:01:51 10° 106° (ESE) 1,459 -1.5 -7.3°
Enters shadow 18:03:26 - 111° (ESE) 2,096 -0.6 -7.6°
